Portada
METAR-TAF:

METAR-TAF

Aeroports :

Francis S. Gabreski Airport

Westhampton Beach, Nova York, Estats Units d'Amèrica

latitud: 40-51-03N, longitud: 072-37-14W, altitud: 20 m

Observació

L'informe es va fer fa 54 minuts, a les 19:53 UTC
Vent 12 kt del Sud-Oest amb ràfegues de 18 kt
Temperatura 9°C
Humitat 53%
Pressió 1016 hPa
Visibilitat: 16.1 km
Cel clar

METAR: KFOK 241953Z 23012G18KT 10SM CLR 09/00 A3000 RMK AO2 SLP160 T00890000

Hora: 15:47 (20:47 UTC)


TAF: manca

Observacions i pronòstics meteorològics de més de 4000 aeroports (METAR i TAF).

Les estacions disponibles són els punts grocs i vermells al mapa.

Posi el ratolí al punt desitjat per veure el nom de l'estació.

Feu clic per veure les observacions i els pronòstics meteorològics.

Per canviar el mapa: feu clic els botons verds amb una creu de color negre per apropar; al botó verd amb un guió per allunyar la imatge; o en les fletxes verdes per a mapes adjacents.


METAR-TAF: